Hlavní strana
METAR-TAF:

METAR-TAF

Letiště :

Billy Mitchell Airport

Hatteras, Severní Karolína, Spojené státy americké

zeměpisná šířka: 35-13-56N, zeměpisná délka: 075-37-21W, výška: 5 m

Aktuální stav počasí

Zpráva byla vytvořena před 51 minutami, v 14:51 UTC
Severoseverozápadní vítr 5 kt
Teplota 28°C
Vlhkost vzduchu 70%
Tlak 1012 hPa
Viditelnost: 16.1 km
Polojasno ve výšce 1500 ft

METAR: KHSE 021451Z AUTO 33005KT 10SM SCT015 28/22 A2987 RMK AO2 SLP115 T02830217 51009

Čas: 11:42 (15:42 UTC)


TAF: chybějící

Stav a předpovědi počasí z více než 4 000 letišť (zprávy METAR a TAF).

Červené a žluté tečky na mapě představují dostupné meteorologické stanice.

Když kurzor umístíte na tečku, zobrazí se název stanice.

Pak kliknutím zobrazíte stav a předpověď počasí.

Chcete-li změnit mapu, kliknutím na zelené tlačítko se znaménkem +mapu přiblížíte, kliknutím na zelené tlačítko se znaménkem – mapu oddálíte a kliknutím na zelené šipky přejdete na sousední mapy.


METAR-TAF: